Content
SEND FEEDBACK

Daily
Averages
Monthly
Summary
United States of America

CHESTERFIELD, MISSOURI


Home > North America > United States > Missouri
Elevation: 170 meters     Latitude: 38 41N     Longitude: 090 31W

WEATHER
 
SELECT A DAY
Number of Records: 203,268;   Date Range: 1/1/95 - 7/7/14
 
SHARE

PRINT THIS DATA

[ ← Previous Day ]
WEATHER ALMANAC - 10 FEBRUARY, 2013
[ Next Day → ]
[ °F ]   °C
Weather ElementAverageHighLow
Temperature9.2 °C13.3 °C (4:51 pm)4.4 °C (1:51 am)
Dewpoint5.2 °C11 °C (4:25 pm)-2.2 °C (9:51 pm)
Humidity77.7 %88 % (2:33 pm)38 % (8:51 pm)
Barometer1006.8 hPa1014.9 hPa (1:51 am)1002.4 hPa (2:33 pm)
Wind Speed29 km/h46.3 km/h (11:51 pm)
Wind Gust70.3 km/h (10:51 pm)
Weather ElementAverage
Visibility11.9 km
Wind DirectionSSE (168.3 °)

Weather ElementTotal
Precipitation24.13 mm
Heating Degree Days9.5 (Base 18.3)
Averaged from 42 records on 10 February, 2013
WEATHER CONDITIONS BREAKOUT
WIND DIRECTION BREAKOUT
WEATHER BY HOUR - 10 FEBRUARY, 2013
[ °F ]   °C
Local TimeTemperatureDewpointHumidityBarometerVisibilityWind DirectionWind SpeedGust SpeedPrecipitationEventsConditions
1:51 AM4.4 °C2.2 °C86 %1014.9 hPa8 kmSE (140°)27.8 km/h1.27 mmRainLight Rain
2:51 AM5 °C2.2 °C82 %1014.2 hPa14.5 kmSSE (150°)22.2 km/h0.51 mmRainLight Rain
3:51 AM5 °C2.2 °C82 %1012.9 hPa11.3 kmSE (130°)27.8 km/h0.51 mmRainLight Rain
4:51 AM5.6 °C2.8 °C82 %1011.5 hPa12.9 kmESE (120°)20.4 km/h0 mmOvercast
5:44 AM6 °C3 °C81 %1010.8 hPa14.5 kmSE (140°)20.4 km/h0.51 mmRainLight Rain
5:51 AM6.7 °C2.8 °C76 %1011.2 hPa14.5 kmSE (140°)22.2 km/h31.5 km/h0.51 mmRainLight Rain
6:51 AM7.2 °C3.3 °C76 %1009.8 hPa14.5 kmSSE (150°)33.3 km/h0.25 mmOvercast
7:15 AM7 °C4 °C81 %1009.1 hPa14.5 kmSSE (150°)37 km/h46.3 km/hOvercast
7:45 AM7 °C4 °C81 %1009.1 hPa9.7 kmSSE (160°)35.2 km/h50.1 km/h0 mmRain-ThunderstormLight Thunderstorms and Rain
7:51 AM7.2 °C3.9 °C80 %1009.8 hPa6.4 kmSSE (160°)35.2 km/h46.3 km/h0.25 mmRain-ThunderstormThunderstorms and Rain
8:13 AM7 °C4 °C81 %1009.5 hPa8 kmSSE (160°)27.8 km/h40.7 km/h1.02 mmRain-ThunderstormLight Thunderstorms and Rain
8:26 AM7 °C4 °C81 %1009.1 hPa6.4 kmSSE (150°)33.3 km/h42.6 km/h1.52 mmRain-ThunderstormThunderstorms and Rain
8:41 AM7 °C4 °C81 %1008.8 hPa4.8 kmSSE (160°)29.6 km/h44.4 km/h3.3 mmRain-ThunderstormThunderstorms and Rain
8:49 AM7 °C4 °C81 %1008.5 hPa4.8 kmSSE (150°)31.5 km/h44.4 km/h4.06 mmRainRain
8:51 AM7.2 °C5 °C86 %1008.8 hPa4.8 kmSSE (150°)29.6 km/h44.4 km/h4.32 mmRainRain
9:36 AM8 °C6 °C87 %1007.5 hPa8 kmSSE (150°)42.6 km/h53.8 km/h2.29 mmRainLight Rain
9:51 AM7.8 °C5.6 °C86 %1006.8 hPa11.3 kmSSE (150°)38.9 km/h48.1 km/h2.29 mmRainLight Rain
10:24 AM8 °C6 °C87 %1006.1 hPa6.4 kmSSE (150°)37 km/h57.5 km/h0.25 mmRainLight Rain
10:33 AM9 °C7 °C87 %1005.1 hPa9.7 kmSSE (150°)42.6 km/h62.9 km/h0.51 mmRainLight Rain
10:51 AM9.4 °C6.7 °C83 %1005.4 hPa16.1 kmSSE (150°)40.7 km/h62.9 km/h0.76 mmOvercast
11:42 AM11 °C7 °C76 %1005.1 hPa16.1 kmSSE (160°)35.2 km/h50.1 km/hOvercast
11:51 AM10.6 °C7.2 °C80 %1005.1 hPa16.1 kmSSE (160°)31.5 km/h40.7 km/hOvercast
12:16 PM10 °C7 °C82 %1004.1 hPa16.1 kmSSE (160°)33.3 km/h48.1 km/hOvercast
12:31 PM10 °C7 °C82 %1003.4 hPa16.1 kmSSE (150°)35.2 km/h46.3 km/hOvercast
12:51 PM10 °C7.2 °C83 %1003.4 hPa16.1 kmSouth (170°)20.4 km/h38.9 km/hOvercast
1:05 PM10 °C7 °C82 %1003 hPa16.1 kmSouth (170°)16.7 km/h35.2 km/hOvercast
1:49 PM11 °C8 °C82 %1003 hPa4.8 kmSouth (180°)20.4 km/h33.3 km/hOvercast
1:51 PM10.6 °C8.3 °C86 %1003.4 hPa4.8 kmSouth (180°)20.4 km/h33.3 km/hOvercast
1:58 PM11 °C8 °C82 %1002.7 hPa4 kmSouth (170°)24.1 km/h0 mmLight Drizzle
2:33 PM11 °C9 °C88 %1002.4 hPa4.8 kmSouth (170°)22.2 km/h29.6 km/h0 mmOvercast
2:39 PM11 °C9 °C88 %1002.4 hPa8 kmSouth (170°)18.5 km/h0 mmOvercast
2:51 PM11.7 °C9.4 °C86 %1002.7 hPa14.5 kmSouth (170°)22.2 km/h0 mmOvercast
3:51 PM12.8 °C10 °C83 %1002.7 hPa16.1 kmSouth (180°)24.1 km/hMostly Cloudy
4:25 PM13 °C11 °C88 %1002.7 hPa16.1 kmSouth (180°)20.4 km/h31.5 km/hMostly Cloudy
4:51 PM13.3 °C10.6 °C84 %1003 hPa16.1 kmSSE (160°)18.5 km/hScattered Clouds
5:51 PM13.3 °C10 °C80 %1003.7 hPa16.1 kmSouth (180°)20.4 km/hScattered Clouds
6:51 PM12.8 °C9.4 °C80 %1004.4 hPa16.1 kmSSW (200°)18.5 km/hPartly Cloudy
7:51 PM12.8 °C-0.6 °C40 %1005.1 hPa16.1 kmSW (220°)31.5 km/h46.3 km/hPartly Cloudy
8:51 PM12.2 °C-1.7 °C38 %1005.8 hPa16.1 kmSW (230°)27.8 km/h37 km/hPartly Cloudy
9:51 PM11.7 °C-2.2 °C38 %1006.1 hPa16.1 kmWSW (240°)31.5 km/h51.8 km/hClear
10:51 PM11.1 °C-2.2 °C40 %1006.8 hPa16.1 kmWSW (250°)38.9 km/h70.3 km/hClear
11:51 PM8.9 °C-1.1 °C50 %1008.5 hPa16.1 kmWest (260°)46.3 km/h57.5 km/hPartly Cloudy
Hourly data recorded from KSTL, located 0 kilometers away from Chesterfield, Missouri







STORIES FROM OUR PARTNERS